User: anonymous   Login
Location: Albany
(35.0000°S, 118.0000°E)
Time: 15:42:55
(UTC-04:00)
Language:

Tiangong - Orbit

View from above orbital plane
View from above orbital plane
View from above satellite
View from above satellite

Ground track
Ground track

The orbit data is extracted from the following two-line orbital elements,

1 48274U 21035A   21267.71086575  .00001768  00000-0  24143-4 0  9993
2 48274  41.4723  35.9179 0002133 316.9669 182.1894 15.61300480 23265
Epoch (UTC): 24 September 2021 17:03:38
Eccentricity: 0.0002133
inclination: 41.4723°
perigee height: 382 km
apogee height: 385 km
right ascension of ascending node: 35.9179°
argument of perigee: 316.9669°
revolutions per day: 15.61300480
mean anomaly at epoch: 182.1894°
orbit number at epoch: 2326

The dashed part of the orbit path shows where the satellite is in the earth's shadow,  

DLR